EHI
0 0 0 0 0 0 0 0 0 0 0 0 0 0 0 0 0 0 0 0 0 0 0 0 0 0 0 0 0 0 0 0 0 0 0 0 0 0 0 0 0 0 0 0
0 0 0 0 0 0 0 0 0 0 0 0 0 0 0 0 0 0 0 0 0 0 0 0 0 0 0 0 0 0 0 0 0 0 0 0 0 0 0 0 0 0 0 0
0 0 0 0 0 0 0 0 0 0 0 0 0 0 0 0 0 0 0 0 0 0 0 0 0 0 0 0 0 0 0 0 0 0 0 0 0 0 0 0 0 0 0 0
0 0 0 0 0 0 0 0 0 0 0 0 0 0 0 0 0 0 0 0 0 0 0 0 0 0 0 0 0 0 0 0 0 0 0 0 0 0 0 0 0 0 0 0
0 0 0 0 0 0 0 0 0 0 0 0 0 0 0 0 0 0 0 0 0 0 0 0 0 0 0 0 0 0 0 0 0 0 0 0 0 0 0 0 0 0 0 0
0 0 0 0 0 0 0 0 0 0 0 0 0 0 0 0 0 0 0 0 0 0 0 0 0 0 0 0 0 0 0 0 0 0 0 0 0 0 0 0 0 0 0 0
0 0 0 0 0 0 0 0 0 0 0 0 0 0 0 0 0 0 0 0 0 0 0 0 0 0 0 0 0 0 0 0 0 0 0 0 0 0 0 0 0 0 0 0
0 0 0 0 0 0 0 0 0 0 0 0 0 0 0 0 0 0 0 0 0 0 0 0 0 0 0 0 0 0 0 0 0 0 0 0 0 0 0 0 0 0 0 0
0 0 0 0 0 0 0 0 0 0 0 0 0 0 0 0 0 0 0 0 0 0 0 0 0 0 0 0 0 0 0 0 0 0 0 0 0 0 0 0 0 0 0 0
0 0 0 0 0 0 0 0 0 0 0 0 0 0 0 0 0 0 0 0 0 0 0 0 0 0 0 0 0 0 0 0 0 0 0 0 0 0 0 0 0 0 0 0
0 0 0 0 0 0 0 0 0 0 0 0 0 0 0 0 0 0 0 0 0 0 0 0 0 0 0 0 0 0 0 0 0 0 0 0 0 0 0 0 0 0 0 0
0 0 0 0 0 0 0 0 0 0 0 0 0 0 0 0 0 0 0 0 0 0 0 0 0 0 0 0 0 0 0 0 0 0 0 0 0 0 0 0 0 0 0 0
0 0 0 0 0 0 0 0 0 0 0 0 0 0 0 0 0 0 0 0 0 0 0 0 0 0 0 0 0 0 0 0 0 0 0 0 0 0 0 0 0 0 0 0
0 0 0 0 0 0 0 0 0 0 0 0 0 0 0 0 0 0 0 0 0 0 0 0 0 0 0 0 0 0 0 0 0 0 0 0 0 0 0 0 0 0 0 0
0 0 0 0 0 0 0 0 0 0 0 0 0 0 0 0 0 0 0 0 0 0 0 0 0 0 0 0 0 0 0 0 0 0 0 0 0 0 0 0 0 0 0 0
0 0 0 0 0 0 0 0 0 0 0 0 0 0 0 0 0 0 0 0 0 0 0 0 0 0 0 0 0 0 0 0 0 0 0 0 0 0 0 0 0 0 0 0
0 0 0 0 0 0 0 0 0 0 0 0 0 0 0 0 0 0 0 0 0 0 0 0 0 0 0 0 0 0 0 0 0 0 0 0 0 0 0 0 0 0 0 0
0 0 0 0 0 0 0 0 0 0 0 0 0 0 0 0 0 0 0 0 0 0 0 0 0 0 0 0 0 0 0 0 0 0 0 0 0 0 0 0 0 0 0 0
0 0 0 0 0 0 0 0 0 0 0 0 0 0 0 0 0 0 0 0 0 0 0 0 0 0 0 0 0 0 0 0 0 0 0 0 0 0 0 0 0 0 0 0
0 0 0 0 0 0 0 0 0 0 0 0 0 0 0 0 0 0 0 0 0 0 0 0 0 0 0 0 0 0 0 0 0 0 0 0 0 0 0 0 0 0 0 0
0 0 0 0 0 0 0 0 0 0 0 0 0 0 0 0 0 0 0 0 0 0 0 0 0 0 0 0 0 0 0 0 0 0 0 0 0 0 0 0 0 0 0 0
0 0 0 0 0 0 0 0 0 0 0 0 0 0 0 0 0 0 0 0 0 0 0 0 0 0 0 0 0 0 0 0 0 0 0 0 0 0 0 0 0 0 0 0
0 0 0 0 0 0 0 0 0 0 0 0 0 0 0 0 0 0 0 0 0 0 0 0 0 0 0 0 0 0 0 0 0 0 0 0 0 0 0 0 0 0 0 0
0 0 0 0 0 0 0 0 0 0 0 0 0 0 0 0 0 0 0 0 0 0 0 0 0 0 0 0 0 0 0 0 0 0 0 0 0 0 0 0 0 0 0 0
0 0 0 0 0 0 0 0 0 0 0 0 0 0 0 0 0 0 0 0 0 0 0 0 0 0 0 0 0 0 0 0 0 0 0 0 0 0 0 0 0 0 0 0
0 0 0 0 0 0 0 0 0 0 0 0 0 0 0 0 0 0 0 0 0 0 0 0 0 0 0 0 0 0 0 0 0 0 0 0 0 0 0 0 0 0 0 0
0 0 0 0 0 0 0 0 0 0 0 0 0 0 0 0 0 0 0 0 0 0 0 0 0 0 0 0 0 0 0 0 0 0 0 0 0 0 0 0 0 0 0 0
Wind_Speed
5 5 5 5 7 7 6 8 8 8 11 13 15 14 13 11 10 9 8 7 7 5 4 4 4 3 3 3 3 4 5 4 2 2 2 3 3 3 4 4 4 4 4 4
2 3 3 3 6 6 6 6 6 6 7 6 8 8 9 11 12 11 9 8 7 6 6 5 4 4 3 3 3 4 4 3 2 3 3 3 3 3 4 4 4 4 4 4
2 3 2 4 8 9 7 7 10 10 10 9 10 14 16 14 13 12 10 9 8 7 6 5 5 4 4 3 3 4 4 3 2 3 3 3 4 4 4 4 4 4 4 4
1 1 4 10 6 7 8 7 8 8 10 16 16 14 11 11 13 12 10 9 8 7 6 4 4 4 4 4 4 4 3 2 2 2 2 3 3 4 3 3 3 3 4 4
3 2 6 7 4 6 7 5 6 9 10 10 9 7 2 6 10 11 10 9 7 7 6 6 5 5 6 5 4 4 2 1 1 1 2 3 3 3 3 2 3 3 3 4
4 3 6 9 6 3 7 3 4 10 13 13 12 8 9 9 9 10 9 8 8 7 7 6 5 6 7 5 4 2 1 0 1 1 1 2 2 2 2 2 2 3 4 4
5 5 8 8 3 5 6 9 6 11 15 16 12 10 9 12 10 10 9 9 9 8 7 6 5 6 6 4 2 2 1 1 1 2 2 1 2 2 2 2 3 4 4 4
6 5 10 5 5 7 8 4 7 10 12 12 8 8 12 13 12 12 10 9 9 8 6 5 5 6 5 3 3 2 1 1 1 2 2 2 2 2 3 2 3 4 4 5
10 9 6 4 6 5 5 6 6 9 8 10 11 10 11 11 12 11 10 9 7 8 7 5 5 6 5 3 3 2 1 0 1 2 2 2 2 2 2 2 2 3 3 4
2 4 3 2 2 2 4 6 6 8 10 11 11 12 12 12 11 10 8 8 7 8 7 5 4 5 5 4 3 3 1 1 1 1 2 3 2 1 1 2 3 3 4 4
2 3 1 1 1 3 4 6 7 7 8 11 13 12 11 11 11 10 8 7 7 8 7 6 5 5 4 4 4 3 2 2 2 2 2 2 3 3 3 4 4 4 4 4
7 8 7 6 5 5 7 7 9 9 8 8 11 12 10 10 9 9 8 7 7 7 7 6 5 5 4 4 4 4 2 2 2 2 2 2 3 4 6 6 9 10 9 8
6 5 6 5 4 5 7 7 8 9 11 10 9 10 11 9 8 8 8 8 8 8 7 6 5 5 5 5 5 5 4 3 3 3 3 3 3 3 5 7 8 9 11 12
4 5 4 4 5 5 6 7 7 7 7 9 9 9 9 8 8 8 9 8 7 7 6 6 6 6 6 5 5 5 4 4 4 3 3 3 4 4 4 4 6 6 7 11
3 5 6 5 5 5 6 7 8 7 6 6 7 9 9 9 9 8 7 6 6 6 6 6 6 6 5 5 5 5 4 3 4 3 4 4 4 4 4 5 5 6 6 7
3 2 5 6 7 7 7 8 9 8 7 7 7 8 8 8 7 6 6 7 7 7 7 6 7 6 5 5 5 4 4 7 5 3 3 3 4 4 4 5 5 5 6 6
5 4 5 6 7 7 7 8 9 9 8 8 8 8 7 7 6 5 5 6 7 7 6 6 7 6 5 6 6 4 4 5 7 4 3 4 4 5 5 5 5 6 6 8
7 7 7 8 8 8 7 7 7 8 8 8 8 8 8 8 8 8 6 5 4 4 5 6 6 5 5 6 5 4 4 4 4 4 4 5 5 5 5 6 7 8 7 8
4 5 5 6 6 7 7 7 7 7 7 7 8 8 8 8 7 6 6 6 6 6 6 6 8 6 6 7 6 4 4 4 4 5 5 7 6 5 5 6 7 7 7 7
3 4 4 4 5 5 5 5 6 6 6 7 7 7 6 6 6 6 6 6 7 7 6 6 6 6 6 7 7 4 5 5 5 5 5 5 6 6 6 7 7 8 7 7
3 3 4 4 4 4 5 5 6 6 6 7 8 8 7 6 6 6 5 5 6 6 6 8 6 5 6 6 7 5 5 5 6 6 6 6 6 7 7 7 8 8 7 8
3 3 3 4 4 3 3 4 5 5 5 6 6 6 6 5 5 5 6 6 6 7 5 4 5 7 8 8 5 5 5 6 6 5 6 6 6 7 7 8 8 8 8 8
2 3 3 4 4 4 3 3 4 4 5 6 6 6 6 6 5 5 5 5 4 7 5 4 7 11 11 6 4 5 6 6 6 6 6 6 7 7 7 8 8 8 8 8
2 2 3 3 3 3 2 3 3 3 4 5 6 6 6 4 3 4 5 5 7 7 5 7 10 11 9 4 4 5 5 6 6 6 6 6 6 7 7 8 8 8 8 9
2 2 2 3 3 3 4 3 3 2 3 3 3 4 4 5 5 4 4 4 7 6 4 7 10 9 5 3 4 5 5 6 6 6 6 6 7 7 7 7 8 8 8 7
2 2 3 4 4 3 3 3 3 3 3 3 2 2 3 2 3 3 3 4 5 5 4 3 4 5 3 4 5 5 5 6 7 7 6 7 8 8 7 8 9 8 8 8
1 1 1 1 2 2 3 3 3 3 4 4 3 3 3 3 3 3 3 3 3 3 3 4 4 4 4 5 5 5 5 6 6 7 7 7 7 7 8 9 8 7 7 8
Wind_Direction
223 224 196 198 200 191 175 176 175 199 188 195 185 173 168 161 154 149 151 151 152 151 147 133 117 107 100 92 82 86 85 75 60 35 29 20 9 356 352 357 357 348 352 349
288 251 209 213 215 199 194 179 174 161 205 198 166 149 154 161 159 159 162 161 157 153 148 145 139 129 113 103 99 92 87 75 50 38 30 15 359 357 358 352 349 358 357 352
267 302 23 258 221 199 199 188 166 184 203 158 156 171 176 173 169 168 166 161 159 157 156 155 153 142 133 132 110 97 92 76 54 44 30 2 359 5 354 341 347 348 343 345
176 42 225 243 243 194 187 208 192 179 171 170 177 180 177 170 167 167 164 160 158 154 147 144 140 131 122 110 104 98 85 64 42 39 19 0 4 356 340 335 340 337 336 335
136 199 271 285 254 173 163 224 197 171 168 164 132 103 148 182 166 165 163 157 155 152 141 133 129 125 109 99 99 94 85 62 29 34 17 3 354 337 333 343 341 334 334 336
141 175 233 248 258 183 116 230 222 164 157 149 133 155 208 184 158 150 146 145 142 136 124 125 131 121 109 108 105 109 138 170 341 4 7 342 326 321 325 332 326 330 330 325
166 205 254 252 249 115 147 223 199 168 160 161 172 186 168 153 150 147 143 143 139 133 132 142 141 122 117 120 147 190 177 81 12 348 328 311 321 320 325 334 338 333 323 317
157 192 248 245 149 177 207 188 158 167 168 167 154 130 139 149 150 147 143 142 141 136 140 147 143 131 131 158 194 177 124 62 354 336 334 2 351 335 336 341 335 325 323 320
184 208 238 222 193 196 158 149 159 163 165 148 140 144 148 152 152 152 149 150 146 144 146 155 157 146 153 191 185 152 119 31 324 333 336 337 336 330 331 332 324 314 313 310
196 253 251 211 150 135 146 149 150 147 147 148 150 151 150 152 154 153 152 154 149 147 154 170 178 171 177 186 172 150 162 246 285 309 314 318 315 302 303 304 305 305 305 301
203 244 84 318 192 154 124 119 122 128 142 152 148 151 155 157 160 160 158 156 155 160 169 181 183 188 193 185 165 164 192 232 257 264 274 291 290 271 269 259 256 275 275 272
208 208 181 210 209 160 138 141 144 138 137 147 152 154 154 159 162 161 161 159 160 166 173 183 185 195 203 191 175 173 200 231 238 249 262 268 283 299 289 279 291 292 285 281
202 192 183 188 177 157 151 153 151 150 153 153 153 153 153 155 160 159 162 165 172 178 181 184 186 200 209 199 186 186 202 221 231 240 249 259 265 276 296 305 303 300 295 293
175 138 148 175 179 167 150 147 140 137 146 152 153 150 150 148 152 161 172 179 176 174 179 184 190 209 216 199 192 199 208 224 226 231 241 249 255 260 265 281 299 300 296 294
203 180 179 170 151 146 140 134 132 140 143 144 148 152 154 157 167 176 178 170 164 172 187 191 199 218 217 198 196 204 209 221 228 233 240 247 256 263 268 272 275 282 292 297
203 158 149 152 160 159 150 150 155 164 162 157 159 165 168 168 169 170 170 166 168 189 201 202 210 219 209 198 199 207 219 236 238 235 244 254 259 263 269 272 276 279 281 283
164 181 179 179 178 175 172 171 170 169 167 167 170 166 158 152 155 169 183 188 191 200 204 204 214 217 207 200 198 206 217 239 253 252 243 248 254 259 262 266 271 274 274 275
192 198 188 179 179 180 180 173 168 167 171 174 165 159 162 168 179 190 196 191 189 207 217 214 214 214 212 208 203 207 214 226 231 236 245 251 257 257 260 264 269 274 278 281
186 186 184 178 175 172 175 176 175 173 167 160 160 169 177 183 189 193 188 183 193 215 231 226 223 214 214 217 213 208 215 225 235 244 248 260 266 263 263 265 269 272 274 277
178 176 174 172 166 163 169 170 166 167 169 165 164 168 178 190 190 189 189 199 210 214 217 220 217 216 218 223 221 211 216 226 237 247 252 255 259 265 265 266 268 270 271 272
168 165 162 163 165 164 165 165 164 174 178 172 173 181 190 197 195 189 189 218 235 224 220 226 219 218 220 225 227 217 221 230 238 245 251 256 261 265 267 268 270 271 272 272
168 168 175 169 161 168 175 169 170 175 178 181 184 185 186 195 201 205 209 216 226 226 219 220 222 228 231 231 221 221 229 235 241 246 250 254 259 264 267 268 269 271 271 271
170 166 168 174 176 179 173 172 173 175 184 191 192 193 196 200 195 196 228 233 224 228 220 220 230 238 243 235 224 227 234 240 246 249 251 255 258 262 265 268 269 270 271 271
174 173 174 167 146 144 176 203 192 190 195 200 201 198 193 194 213 218 218 224 224 228 223 230 238 243 247 232 227 235 242 248 251 254 255 258 259 261 264 266 268 269 268 270
187 173 159 152 165 192 201 197 191 199 198 209 217 213 205 196 201 215 214 219 228 232 229 238 245 253 248 233 234 241 246 249 254 256 251 258 261 264 266 267 268 269 269 269
203 202 205 202 199 197 193 187 195 202 197 208 228 228 222 216 210 208 211 221 227 230 225 227 236 242 237 237 241 245 249 262 272 268 260 262 264 265 268 267 267 267 268 268
224 218 214 224 225 203 192 189 195 205 201 198 210 221 217 217 219 220 220 220 222 227 229 232 232 234 238 240 244 248 250 253 257 260 262 262 263 264 266 266 267 267 267 268